Regional Weather Roundup
Issued by NWS

Home | Current Version | Previous Version | Graphics & Text | Print | Product List | Glossary On
Versions: 1 2 3 4 5 6 7 8 9 10 11 12 13 14 15 16 17 18 19 20 21 22 23 24 25 26 27 28 29 30 31 32 33 34 35 36 37 38 39 40 41 42 43 44 45 46 47 48 49 50
000
ASUS43 KIND 201459
RWRIN

WEATHER ROUNDUP FOR INDIANA
NATIONAL WEATHER SERVICE INDIANAPOLIS IN
1000 AM EST FRI JAN 20 2017

NOTE: "FAIR" INDICATES FEW OR NO CLOUDS BELOW 12,000 FEET WITH NO
SIGNIFICANT WEATHER AND/OR OBSTRUCTIONS TO VISIBILITY.

* - STATION DOES NOT REPORT WEATHER SUCH AS PRECIPITATION OR FOG.

+ - STATION NOT QUALITY CONTROLLED BY THE NATIONAL WEATHER SERVICE.
    USE DATA WITH CAUTION...ESPECIALLY DEWPOINT AND RELATIVE
    HUMIDITY OBSERVATIONS.

INZ001>003-010>013-019-020-201600-
NORTHWEST INDIANA

CITY           SKY/WX    TMP DP  RH WIND       PRES   REMARKS
GARY /AIRPORT/ CLOUDY    39  39 100 CALM      29.65R FOG
MONTICELLO +   CLOUDY    41  40  95 CALM      29.62R FOG

$$

LMZ046-743>745-201600-
SOUTHERN LAKE MICHIGAN

STATION/POSITION TIME  TEMP    WIND        PRES    WAVE
                       AIR SEA DIR/SP/G            HT
                 (UTC) (F)     (DEG/KT/KT) (MB)    (FT)
BURNS HARBOR     1440   35      80/  4/  6 1004.4R
MICHIGAN CITY    1410   34      40/  7/  8   N/A

$$

INZ004-005-014>016-021>024-201600-
NORTH CENTRAL INDIANA

CITY           SKY/WX    TMP DP  RH WIND       PRES   REMARKS
ELKHART        CLOUDY    37  36  93 E6        29.63R FOG
GOSHEN         LGT RAIN  37  34  89 E3        29.63S VSB 1
SOUTH BEND     FOG       37  37 100 SE7       29.63R VSB 1

$$

INZ006>009-017-018-025>027-201600-
NORTHEAST INDIANA

CITY           SKY/WX    TMP DP  RH WIND       PRES   REMARKS
ANGOLA *+      CLOUDY    36  36 100 CALM      29.62R
FORT WAYNE     DRIZZLE   40  38  93 CALM      29.64R FOG
KENDALLVILLE + DRZL/FOG  36  36 100 SE3       29.64R VSB 3/4

$$

INZ028-029-035-036-043>045-051>053-201600-
WEST CENTRAL INDIANA

CITY           SKY/WX    TMP DP  RH WIND       PRES   REMARKS
CRAWFORDSVL +  CLOUDY    45  45 100 SW13      29.68R FOG
LAFAYETTE      CLOUDY    44  44 100 SW8       29.65R FOG
TERRE HAUTE    CLOUDY    50  48  93 W9        29.69R FOG

$$

INZ030>032-037>040-046>048-054>057-064-065-201600-
CENTRAL INDIANA

CITY           SKY/WX    TMP DP  RH WIND       PRES   REMARKS
ANDERSON       CLOUDY    48  48 100 SW12      29.66R
COLUMBUS       LGT RAIN  52  52 100 S12       29.70R FOG
INDIANAPOLIS   DRZL/FOG  50  50 100 SW8       29.67R VSB 1/4
-EAGLE CREEK   CLOUDY    50  49  96 W6        29.67R
KOKOMO +       CLOUDY    45  45 100 SW12      29.64R FOG
MT COMFORT *+  CLOUDY    50  50 100 SW7       29.67R
SHELBYVILLE    CLOUDY    53  50  89 SW9       29.67R

$$

INZ033-034-041-042-049-050-058-059-201600-
EAST CENTRAL INDIANA

CITY           SKY/WX    TMP DP  RH WIND       PRES   REMARKS
MUNCIE         CLOUDY    50  48  93 SW12G18   29.64R

$$

INZ060-061-067>069-081>083-085>088-201600-
SOUTHWEST INDIANA

CITY           SKY/WX    TMP DP  RH WIND       PRES   REMARKS
EVANSVILLE     CLOUDY    55  48  77 SW13      29.73R
HUNTINGBURG *+ CLOUDY    54  49  83 SW10      29.74R

$$

INZ062-063-066-070>080-084-089>092-201600-
SOUTH CENTRAL AND SOUTHEAST INDIANA

CITY           SKY/WX    TMP DP  RH WIND       PRES   REMARKS
BLOOMINGTON    CLOUDY    53  50  89 SW10      29.70R
MADISON *+     CLOUDY    54  52  94 SW9       29.74R
SEYMOUR +      CLOUDY    57  52  82 SW8       29.71R

$$




USA.gov is the U.S. government's official web portal to all federal, state and local government web resources and services.